This demonstration page uses our WeatherBlox Daily Observations layout. Learn more.

Left ArrowRight Arrow

Hourly Observations for July 8, 2021

Temp ( °F °C ) Dew Point ( °F °C ) Humidity (%) Winds ( mph kmh ) Pressure ( in mb ) Visibility ( mi km ) Precip ( " mm )
12:53 am 00:53 Clear 61 16.1 56 13.3 84 84 VRB 5 7 29.70 1006 10 16 0.00 0.00
1:53 am 01:53 Clear 58 14.4 55 12.8 90 90 S 3 6 29.71 1006 10 16 0.00 0.00
2:53 am 02:53 Clear 61 16.1 56 13.3 84 84 SSW 7 11 29.70 1006 10 16 0.00 0.00
3:53 am 03:53 Clear 62 16.7 57 13.9 84 84 NW 7 11 29.72 1007 10 16 0.00 0.00
4:53 am 04:53 Mostly Cloudy 59 15 57 13.9 93 93 SSW 8 13 29.73 1007 10 16 0.00 0.00
5:53 am 05:53 Mostly Cloudy 61 16.1 58 14.4 90 90 W 7 11 29.75 1008 10 16 0.00 0.00
6:53 am 06:53 Sunny 62 16.7 58 14.4 86 86 WSW 3 6 29.76 1008 10 16 0.00 0.00
7:53 am 07:53 Sunny 66 18.9 58 14.4 75 75 WSW 7 11 29.77 1008 10 16 0.00 0.00
8:53 am 08:53 Sunny 68 20 58 14.4 70 70 SW 6 9 29.78 1008 10 16 0.00 0.00
9:53 am 09:53 Partly Cloudy 70 21.1 59 15 68 68 WNW 12 19 29.80 1009 10 16 0.00 0.00
10:10 am 10:10 Mostly Cloudy 71 21.7 59 15 66 66 NNW 14 22 29.75 1007 10 16 0.00 0.00
10:46 am 10:46 Mostly Sunny 70 21.1 56 13.3 61 61 NNW 15 24 29.76 1008 10 16 0.00 0.00
10:53 am 10:53 Mostly Sunny 70 21.1 56 13.3 61 61 NNW 13 20 29.83 1010 10 16 0.00 0.00
11:53 am 11:53 Mostly Cloudy 71 21.7 50 10 47 47 NW 18 30 29.85 1011 10 16 0.00 0.00
12:53 pm 12:53 Mostly Cloudy 70 21.1 52 11.1 53 53 NW 15 24 29.86 1011 10 16 0.00 0.00
1:53 pm 13:53 Sunny 78 25.6 51 10.6 39 39 NW 12 19 29.86 1011 10 16 0.00 0.00
2:53 pm 14:53 Sunny 79 26.1 50 10 36 36 WNW 15 24 29.85 1011 10 16 0.00 0.00
3:53 pm 15:53 Sunny 82 27.8 49 9.4 32 32 NW 18 30 29.84 1011 10 16 0.00 0.00
4:53 pm 16:53 Sunny 82 27.8 49 9.4 32 32 NW 13 20 29.85 1011 10 16 0.00 0.00
5:53 pm 17:53 Sunny 81 27.2 47 8.3 30 30 NW 15 24 29.86 1011 10 16 0.00 0.00
6:53 pm 18:53 Sunny 81 27.2 47 8.3 30 30 N 10 17 29.86 1011 10 16 0.00 0.00
7:53 pm 19:53 Sunny 81 27.2 48 8.9 32 32 N 7 11 29.87 1011 10 16 0.00 0.00
8:53 pm 20:53 Sunny 76 24.4 51 10.6 42 42 NNE 8 13 29.89 1012 10 16 0.00 0.00
9:53 pm 21:53 Clear 71 21.7 49 9.4 46 46 NE 6 9 29.92 1013 10 16 0.00 0.00
10:53 pm 22:53 Clear 63 17.2 52 11.1 68 68 ESE 5 7 29.94 1014 10 16 0.00 0.00
11:53 pm 23:53 Clear 63 17.2 52 11.1 68 68 E 3 6 29.94 1014 10 16 0.00 0.00

Powered by AerisWeather